STARLINK-3835, 52476

Orbit data source: Space-Track

STARLINK-3835, 52476 is a payload satellite owned by SpaceX/Seattle (US) in LEO that was launched on Fri, 06 May 2022 UTC via an FALCON 9 launch vehicle from the Air Force Eastern Test Range (AFETR). Payload-class satellites include a variety of spacecraft equipped with specific instruments for various scientific and technological missions. These include communications satellites like Starlink; space stations such as the ISS; scientific satellites like the Hubble; Earth observation satellites from companies like Planet Labs, Umbra, and HawkEye 360; GPS; miniature CubeSats for education and research; and military/defense satellites.

Loading next visibility...
Identifier
52476, 2022-049AB
Orbit
LEO
Country
Flag of USUS
Related business
Manufacturer
SpaceX/Seattle
Mission
Operational Commercial Communications
Bus & Motor
STARLINK, Unknown motor
Mass
297 kg wet, ~220 kg dry
Launch date (UTC)
2022-05-06 (4 years ago)
Launch vehicle
FALCON 9
Launch site
Air Force Eastern Test Range (AFETR)
Object type
Payload
Rocket body
Debris
Shape & HBR
Box + 1 Pan, 10.1 m
Radar Cross Section
13.562 m², Large (>1 m²)

Expand to show TLE details & history
Last TLE update: 22 hours ago

TLE from 22 hours ago
0 STARLINK-3835
1 52476U 22049AB  26235.81147434 -.00001365  00000-0 -28252-4 0  9991
2 52476  53.1626  13.8220 0000948  99.1509 260.9601 15.35396378238927
Epoch: 2026-08-23T19:28Z
TLE epoch observation values (Epoch: 2026-08-23T19:28:31.382Z)
Latitude
-0.00007°
Longitude
109.58902°
Altitude
460.747 km
Speed
7.637 km/s
True Right ascension
00h 55m 17s
True Declination
0° 00' 00"
Sunlit
Object was in full shadow at epoch
Visualization orbit readout
Latitude
Unknown
Longitude
Unknown
Altitude
Unknown
Speed
Unknown
Apparent Right ascension
Unknown
Apparent Declination
Unknown
Sunlit
N/A
Visualization observer readout
Local Sidereal Time
08:58:53
Azimuth
Unknown
Elevation
Unknown
Doppler factor
Unknown
Orbital elements
Apogee altitude
460.648 km
Perigee altitude
459.352 km
Semi-major axis
6,838.137 km
Eccentricity
0.00009
Inclination
53.1626°
RAAN
13.822°
Arg. of periapsis
99.1509°
True anomaly
260.94937°
Mean anomaly
260.9601°
Eccentric anomaly
260.95474°
Mean motion
3.83828 °/min
Orbital period
93.79 mins
BSTAR
-0.000028252
Loading maneuver chart data...
Computing Atmospheric mass density...
Loading historical data...
Loading historical data...
Loading historical data...
Loading historical data...
Loading historical data...
Loading historical data...
Loading historical data...

Documentation

Showing up to 5 results
|